Location: Prague
(50.0830°N, 14.4670°E)
Time: 09:26:20
(UTC+02:00)

RS-15 - Pass Details

Date: 05 April 2023
Orbit: 1885 x 2159 km, 64.8° (Epoch: 29 May)

Event Time Altitude Azimuth Distance (km) Brightness Sun altitude
Rises 00:37:02 0° 320° (NW) 5,644 11.2 -33.7°
Reaches altitude 10° 00:40:32 10° 318° (NW) 4,614 10.6 -33.8°
Maximum altitude 00:52:22 69° 240° (WSW) 2,155 8.0 -34.0°
Enters shadow 00:54:03 62° 199° (SSW) 2,221 7.9 -34.0°
